Flag for Canada Weather past 2 weeks in Sherbrooke, Quebec, Canada

Now
64 °F

Sunny.


Feels Like: 64 °F
Forecast: 50 / 63 °F
Wind: 17 mph from Northwest

Location: Sherbrooke

Current Time: May 5, 2015 at 4:24:39 PM

Latest Report: May 5, 2015 at 4:00 PM


Visibility: 9 mi

Pressure: 30.18 "Hg

Humidity: 26%

Dew point: 28 °F

Location of SherbrookeLocation

Historic Weather in Sherbrooke — Graph

°F

Sherbrooke temperature yesterday

Maximum temperature yesterday: 81 °F (at 2:00 PM)
Minimum temperature yesterday: 39 °F (at 5:00 AM)
Average temperature yesterday: 62 °F

Past Weeks' High & Low Weather Summary

 TemperatureHumidityPressure
High81 °F (May 4, 2:00 PM)100% (Apr 21, 6:51 AM)30.25 "Hg (Apr 21, 6:51 AM)
Low28 °F (Apr 25, 1:02 AM)21% (May 4, 4:00 PM)29.47 "Hg (Apr 23, 4:00 AM)
Average45 °F71%29.80 "Hg
* Reported Apr 20 3:00 PM — May 5 3:00 PM, Sherbrooke, Weather by CustomWeather, © 2015

Note: Actual official high and low records may vary slightly from our data, if they occured in-between our weather recording intervals... More about our weather records

Advertising

Sherbrooke weather history for previous 24 hours

 ConditionsComfort  
Time TempWeatherWind HumidityBarometerVisibility
3:00 PM
Tue, May 5
64 °FSunny.13 mph26%30.19 "Hg9 mi
2:00 PM63 °FSunny.18 mph32%30.21 "Hg9 mi
1:00 PM61 °FSunny.7 mph34%30.22 "Hg9 mi
12:00 PM61 °FSunny.16 mph36%30.24 "Hg9 mi
11:00 AM57 °FSunny.14 mph44%30.24 "Hg9 mi
10:00 AM54 °FScattered clouds.8 mph63%30.25 "Hg9 mi
9:00 AM52 °FScattered clouds.12 mph62%30.25 "Hg9 mi
8:00 AM50 °FOvercast.13 mph71%30.24 "Hg9 mi
7:00 AM48 °FSunny.8 mph76%30.22 "Hg9 mi
6:00 AM46 °FClear.9 mph82%30.19 "Hg9 mi
5:00 AM50 °FClear.9 mph76%30.14 "Hg9 mi
4:00 AM52 °FClear.8 mph82%30.11 "Hg9 mi
3:00 AM57 °FPassing clouds.16 mph88%30.06 "Hg9 mi
2:00 AM57 °FMostly cloudy.12 mph100%30.03 "Hg9 mi
1:00 AM57 °FLight rain. Mostly cloudy.10 mphN/A30.01 "Hg3 mi
12:59 AM57 °FLight rain. Low clouds.10 mphN/A30.01 "Hg3 mi
12:00 AM57 °FLight rain. Mostly cloudy.7 mphN/A29.99 "Hg3 mi
11:00 PM
Mon, May 4
59 °FLight rain. Overcast.7 mph88%29.99 "Hg9 mi
10:00 PM61 °FLight rain. Overcast.7 mph77%30.02 "Hg9 mi
9:00 PM66 °FOvercast.24 mph56%30.01 "Hg9 mi
8:00 PM70 °FOvercast.18 mph43%29.97 "Hg9 mi
7:00 PM75 °FOvercast.12 mph25%29.94 "Hg9 mi
6:00 PM77 °FMostly cloudy.10 mph24%29.93 "Hg9 mi
5:00 PM79 °FSunny.21 mph23%29.93 "Hg9 mi
4:00 PM81 °FPartly sunny.22 mph21%29.94 "Hg9 mi
Weather by CustomWeather, © 2015

See weather overviewHow to use our weather pages